Location: Unspecified
(44.0704°N, 88.6889°W)
Time: 23:55:07
(UTC+02:00)

ISS - Pass Details

Date: 30 March 2019
Orbit: 408 x 410 km, 51.6° (Epoch: 23 April)

Event Time Altitude Azimuth Distance (km) Brightness Sun altitude
Rises 02:13:48 0° 285° (WNW) 2,336 2.4 -10.7°
Reaches altitude 10° 02:16:12 10° 301° (WNW) 1,474 0.4 -11.1°
Maximum altitude 02:18:51 22° 355° (N) 956 -1.7 -11.5°
Drops below altitude 10° 02:21:31 10° 48° (NE) 1,474 -1.3 -12.0°
Enters shadow 02:21:59 - 53° (NE) 1,629 -1.1 -12.1°
